User: anonymous   Login
Location: State Camp
(41.2367°N, 77.7828°W)
Time: 03:23:32
(UTC-05:00)
Language:

Cosmos 1674 Rocket - Orbit

View from above orbital plane
View from above orbital plane
View from above satellite
View from above satellite

Ground track
Ground track

The orbit data is extracted from the following two-line orbital elements,

1 15945U 85069B   18052.17025956  .00000068  00000-0  52790-5 0  9995
2 15945  82.5252 259.8342 0019797 176.0999 184.0375 14.83961352757950
Epoch (UTC): 21 February 2018 04:05:10
Eccentricity: 0.0019797
inclination: 82.5252°
perigee height: 603 km
apogee height: 631 km
right ascension of ascending node: 259.8342°
argument of perigee: 176.0999°
revolutions per day: 14.83961352
mean anomaly at epoch: 184.0375°
orbit number at epoch: 75795

The dashed part of the orbit path shows where the satellite is in the earth's shadow,  

DLR